Вернуться в каталог

FENGYUN 1C DEB

АктивенSSO
NORAD 29950·DEBRIS·🇨🇳 China

Запущен May 10, 1999 с Taiyuan Satellite Launch Center

Loading…

Ближайшие Пролёты (ближайшие 24 часа)

TLE

СвежийSource: Space-Track

Эпоха: Sep 14, 2026, 08:33 UTC

1 29950U 99025JY  26257.35668037  .00000046  00000-0  49457-4 0  9993
2 29950  98.7134 285.3291 0033194 179.8629 248.0550 14.10440149 11768

Отслеживайте FENGYUN 1C DEB в реальном времени с AllMySat

Download on the App Store